DLH1786 LFRS-EDDM

Flight info

Callsign DLH1786
Flight time 1h 33m
Altitude 38000
Route ANG UL976 OBATO UM163 TSU UN858 OQQAL DCT RANUX/N0455F390 DCT VALEK DCT LIPNI DCT EXCOS DCT VIBOM DCT ELMOX T104 ROKIL ROKIL1B
Aircraft A20N/M-SDE2E3FGHIRWXY/LB1

Departure

Time 2026-05-06 19:33
Airport Nantes Atlantique Airport (LFRS)

Arrival

Time 2026-05-06 21:06
Airport Munich Airport (EDDM)
Time Latitude Longitude Altitude Speed Heading
2026-05-06 19:06 47.15709 -1.60272 102 ft 0 kts 44°
2026-05-06 19:22 47.15703 -1.60280 102 ft 1 kts 44°
2026-05-06 19:23 47.15699 -1.60286 103 ft 2 kts 44°
2026-05-06 19:24 47.15687 -1.60303 104 ft 2 kts 45°
2026-05-06 19:24 47.15675 -1.60320 104 ft 2 kts 44°
2026-05-06 19:24 47.15663 -1.60335 104 ft 2 kts 16°
2026-05-06 19:24 47.15652 -1.60334 103 ft 1 kts 332°
2026-05-06 19:25 47.15650 -1.60333 102 ft 0 kts 326°
2026-05-06 19:26 47.15650 -1.60334 102 ft 1 kts 326°
2026-05-06 19:27 47.15658 -1.60344 103 ft 3 kts 319°
2026-05-06 19:27 47.15677 -1.60367 104 ft 4 kts 319°
2026-05-06 19:27 47.15705 -1.60405 104 ft 7 kts 313°
2026-05-06 19:27 47.15716 -1.60485 103 ft 10 kts 247°
2026-05-06 19:28 47.15652 -1.60551 104 ft 12 kts 207°
2026-05-06 19:28 47.15578 -1.60608 106 ft 13 kts 207°
2026-05-06 19:28 47.15484 -1.60680 105 ft 18 kts 207°
2026-05-06 19:28 47.15361 -1.60773 106 ft 21 kts 207°
2026-05-06 19:29 47.15225 -1.60876 103 ft 23 kts 207°
2026-05-06 19:29 47.15085 -1.60983 102 ft 23 kts 207°
2026-05-06 19:29 47.14938 -1.61094 102 ft 23 kts 207°
2026-05-06 19:29 47.14795 -1.61203 100 ft 24 kts 208°
2026-05-06 19:30 47.14651 -1.61314 101 ft 23 kts 207°
2026-05-06 19:30 47.14502 -1.61427 100 ft 24 kts 207°
2026-05-06 19:30 47.14349 -1.61543 96 ft 26 kts 207°
2026-05-06 19:30 47.14208 -1.61650 92 ft 15 kts 207°
2026-05-06 19:31 47.14150 -1.61775 94 ft 15 kts 250°
2026-05-06 19:31 47.14162 -1.61901 93 ft 12 kts 335°
2026-05-06 19:31 47.14262 -1.61873 95 ft 0 kts 25°
2026-05-06 19:32 47.14274 -1.61864 94 ft 14 kts 26°
2026-05-06 19:32 47.14572 -1.61638 103 ft 80 kts 27°
2026-05-06 19:32 47.15270 -1.61108 103 ft 145 kts 27°
2026-05-06 19:32 47.16240 -1.60360 465 ft 162 kts 28°
2026-05-06 19:33 47.17290 -1.59658 1056 ft 164 kts
2026-05-06 19:33 47.18365 -1.59877 1912 ft 155 kts 349°
2026-05-06 19:33 47.19504 -1.60269 2331 ft 184 kts 347°
2026-05-06 19:33 47.20825 -1.60734 2622 ft 212 kts 348°
2026-05-06 19:34 47.22395 -1.61243 2916 ft 247 kts 349°
2026-05-06 19:34 47.24125 -1.61770 3724 ft 257 kts 349°
2026-05-06 19:34 47.25884 -1.62288 4755 ft 258 kts 349°
2026-05-06 19:34 47.27672 -1.62270 5679 ft 261 kts 17°
2026-05-06 19:35 47.29163 -1.60782 6559 ft 266 kts 52°
2026-05-06 19:35 47.29979 -1.58326 7425 ft 271 kts 69°
2026-05-06 19:35 47.30605 -1.55688 8292 ft 275 kts 68°
2026-05-06 19:35 47.31296 -1.53040 9185 ft 279 kts 66°
2026-05-06 19:36 47.32057 -1.50429 10062 ft 282 kts 64°
2026-05-06 19:36 47.32901 -1.47720 10543 ft 302 kts 63°
2026-05-06 19:36 47.33845 -1.44817 10843 ft 326 kts 62°
2026-05-06 19:36 47.34877 -1.41706 11172 ft 348 kts 62°
2026-05-06 19:37 47.35965 -1.38447 11751 ft 360 kts 62°
2026-05-06 19:37 47.37085 -1.35102 12498 ft 367 kts 62°
2026-05-06 19:37 47.38225 -1.31699 13262 ft 374 kts 63°
2026-05-06 19:37 47.38992 -1.29409 13763 ft 378 kts 63°
2026-05-06 19:38 47.40564 -1.24711 14722 ft 385 kts 63°
2026-05-06 19:38 47.41750 -1.21161 15525 ft 387 kts 62°
2026-05-06 19:38 47.42946 -1.17580 16256 ft 391 kts 62°
2026-05-06 19:38 47.44156 -1.13954 16962 ft 396 kts 62°
2026-05-06 19:39 47.45378 -1.10285 17658 ft 401 kts 62°
2026-05-06 19:39 47.46615 -1.06569 18345 ft 405 kts 62°
2026-05-06 19:39 47.47864 -1.02810 18940 ft 409 kts 62°
2026-05-06 19:39 47.49110 -0.99051 19526 ft 413 kts 62°
2026-05-06 19:40 47.50380 -0.95217 20128 ft 417 kts 62°
2026-05-06 19:40 47.51663 -0.91348 20728 ft 420 kts 62°
2026-05-06 19:40 47.53109 -0.87571 21323 ft 423 kts 54°
2026-05-06 19:40 47.54950 -0.84173 21900 ft 424 kts 44°
2026-05-06 19:41 47.57136 -0.81222 22495 ft 426 kts 38°
2026-05-06 19:41 47.59456 -0.78454 23064 ft 429 kts 36°
2026-05-06 19:41 47.61811 -0.75811 23600 ft 432 kts 35°
2026-05-06 19:41 47.64241 -0.73148 24049 ft 435 kts 35°
2026-05-06 19:42 47.66684 -0.70474 24496 ft 438 kts 35°
2026-05-06 19:42 47.69138 -0.67767 24941 ft 441 kts 35°
2026-05-06 19:42 47.71601 -0.65023 25386 ft 444 kts 36°
2026-05-06 19:42 47.74072 -0.62248 25819 ft 446 kts 36°
2026-05-06 19:43 47.76551 -0.59447 26247 ft 449 kts 36°
2026-05-06 19:43 47.79041 -0.56623 26665 ft 451 kts 36°
2026-05-06 19:43 47.81543 -0.53779 27098 ft 454 kts 36°
2026-05-06 19:43 47.84056 -0.50920 27502 ft 456 kts 36°
2026-05-06 19:44 47.86587 -0.48036 27887 ft 459 kts 36°
2026-05-06 19:44 47.89130 -0.45137 28268 ft 461 kts 36°
2026-05-06 19:44 47.91678 -0.42227 28733 ft 461 kts 36°
2026-05-06 19:44 47.94189 -0.39358 29294 ft 459 kts 36°
2026-05-06 19:45 47.96720 -0.36462 29835 ft 458 kts 36°
2026-05-06 19:45 47.99244 -0.33570 30304 ft 456 kts 36°
2026-05-06 19:45 48.01754 -0.30691 30762 ft 454 kts 36°
2026-05-06 19:45 48.04175 -0.27661 31229 ft 453 kts 42°
2026-05-06 19:46 48.06301 -0.24197 31673 ft 452 kts 51°
2026-05-06 19:46 48.08050 -0.20292 32084 ft 452 kts 59°
2026-05-06 19:46 48.09532 -0.16137 32493 ft 451 kts 62°
2026-05-06 19:46 48.10915 -0.11929 32882 ft 450 kts 63°
2026-05-06 19:47 48.12246 -0.07685 33265 ft 449 kts 63°
2026-05-06 19:47 48.13537 -0.03486 33644 ft 448 kts 63°
2026-05-06 19:47 48.14833 0.00748 34011 ft 447 kts 63°
2026-05-06 19:47 48.16132 0.04978 34272 ft 447 kts 63°
2026-05-06 19:48 48.17438 0.09211 34497 ft 448 kts 63°
2026-05-06 19:48 48.18749 0.13446 34712 ft 449 kts 63°
2026-05-06 19:48 48.20065 0.17690 34922 ft 449 kts 63°
2026-05-06 19:48 48.21385 0.21946 35133 ft 450 kts 63°
2026-05-06 19:49 48.22705 0.26207 35338 ft 451 kts 64°
2026-05-06 19:49 48.24024 0.30471 35568 ft 451 kts 64°
2026-05-06 19:49 48.25343 0.34743 35768 ft 451 kts 64°
2026-05-06 19:49 48.26663 0.39026 35958 ft 452 kts 64°
2026-05-06 19:50 48.27538 0.41870 36085 ft 453 kts 64°
2026-05-06 19:50 48.28858 0.46169 36275 ft 454 kts 64°
2026-05-06 19:50 48.30180 0.50479 36453 ft 455 kts 64°
2026-05-06 19:50 48.31501 0.54796 36644 ft 455 kts 64°
2026-05-06 19:51 48.33250 0.60522 36884 ft 456 kts 64°
2026-05-06 19:51 48.34145 0.63456 37010 ft 456 kts 64°
2026-05-06 19:51 48.35465 0.67791 37185 ft 456 kts 64°
2026-05-06 19:51 48.36786 0.72139 37365 ft 457 kts 64°
2026-05-06 19:52 48.38107 0.76493 37533 ft 457 kts 65°
2026-05-06 19:52 48.39409 0.80792 37699 ft 458 kts 65°
2026-05-06 19:52 48.40730 0.85160 37863 ft 458 kts 65°
2026-05-06 19:52 48.42050 0.89533 37971 ft 460 kts 65°
2026-05-06 19:53 48.44695 0.98322 37974 ft 461 kts 65°
2026-05-06 19:53 48.47329 1.07104 37971 ft 460 kts 65°
2026-05-06 19:54 48.49957 1.15897 37973 ft 460 kts 65°
2026-05-06 19:54 48.52575 1.24689 37969 ft 460 kts 65°
2026-05-06 19:55 48.55188 1.33495 37970 ft 460 kts 65°
2026-05-06 19:55 48.57795 1.42314 37964 ft 460 kts 65°
2026-05-06 19:56 48.60400 1.51156 37970 ft 460 kts 65°
2026-05-06 19:56 48.62996 1.60000 37964 ft 460 kts 65°
2026-05-06 19:57 48.65489 1.68917 37965 ft 460 kts 68°
2026-05-06 19:57 48.67704 1.78010 37958 ft 461 kts 70°
2026-05-06 19:58 48.69864 1.87158 37957 ft 462 kts 70°
2026-05-06 19:58 48.72042 1.96310 37966 ft 462 kts 70°
2026-05-06 19:59 48.74233 2.05457 37967 ft 462 kts 70°
2026-05-06 19:59 48.76287 2.14679 37966 ft 462 kts 73°
2026-05-06 20:00 48.77987 2.24078 37967 ft 462 kts 75°
2026-05-06 20:00 48.79617 2.33522 37961 ft 463 kts 75°
2026-05-06 20:01 48.81271 2.42963 37966 ft 463 kts 75°
2026-05-06 20:01 48.82943 2.52399 37960 ft 463 kts 75°
2026-05-06 20:02 48.84616 2.61838 37962 ft 463 kts 75°
2026-05-06 20:02 48.86280 2.71278 37960 ft 463 kts 75°
2026-05-06 20:03 48.87934 2.80723 37959 ft 463 kts 75°
2026-05-06 20:03 48.89580 2.90181 37946 ft 463 kts 75°
2026-05-06 20:04 48.91220 2.99649 37947 ft 463 kts 75°
2026-05-06 20:04 48.92852 3.09126 37942 ft 463 kts 76°
2026-05-06 20:05 48.94468 3.18555 37953 ft 463 kts 76°
2026-05-06 20:05 48.96085 3.28047 37953 ft 463 kts 76°
2026-05-06 20:06 48.97695 3.37546 37949 ft 463 kts 76°
2026-05-06 20:06 48.99295 3.47043 37945 ft 463 kts 76°
2026-05-06 20:07 49.00889 3.56548 37951 ft 463 kts 76°
2026-05-06 20:07 49.02476 3.66070 37953 ft 464 kts 76°
2026-05-06 20:08 49.04057 3.75608 37948 ft 464 kts 76°
2026-05-06 20:08 49.05629 3.85150 37945 ft 464 kts 76°
2026-05-06 20:09 49.07193 3.94694 37940 ft 464 kts 76°
2026-05-06 20:09 49.08742 4.04199 37939 ft 464 kts 76°
2026-05-06 20:10 49.10292 4.13761 37940 ft 464 kts 76°
2026-05-06 20:10 49.11833 4.23326 37942 ft 464 kts 77°
2026-05-06 20:11 49.13368 4.32888 37938 ft 464 kts 75°
2026-05-06 20:11 49.15530 4.42167 37935 ft 464 kts 69°
2026-05-06 20:12 49.17968 4.51310 37942 ft 465 kts 68°
2026-05-06 20:12 49.20461 4.60452 37938 ft 466 kts 68°
2026-05-06 20:13 49.22942 4.69596 37929 ft 465 kts 68°
2026-05-06 20:13 49.25404 4.78749 37928 ft 465 kts 68°
2026-05-06 20:14 49.27860 4.87934 37924 ft 465 kts 68°
2026-05-06 20:14 49.30304 4.97115 37927 ft 466 kts 68°
2026-05-06 20:15 49.32747 5.06329 37915 ft 467 kts 68°
2026-05-06 20:15 49.35185 5.15558 37916 ft 467 kts 69°
2026-05-06 20:16 49.37616 5.24795 37914 ft 467 kts 69°
2026-05-06 20:16 49.40040 5.34046 37915 ft 467 kts 69°
2026-05-06 20:17 49.42457 5.43304 37905 ft 467 kts 69°
2026-05-06 20:17 49.44851 5.52514 37908 ft 467 kts 69°
2026-05-06 20:18 49.47256 5.61807 37899 ft 467 kts 69°
2026-05-06 20:18 49.49651 5.71093 37900 ft 467 kts 69°
2026-05-06 20:19 49.52018 5.80402 37897 ft 467 kts 71°
2026-05-06 20:19 49.53390 5.90127 37881 ft 464 kts 83°
2026-05-06 20:20 49.54147 6.00002 37890 ft 464 kts 85°
2026-05-06 20:20 49.54791 6.09895 37888 ft 464 kts 85°
2026-05-06 20:21 49.55431 6.19796 37889 ft 464 kts 85°
2026-05-06 20:21 49.56078 6.29633 37873 ft 465 kts 85°
2026-05-06 20:22 49.56731 6.39540 37876 ft 465 kts 85°
2026-05-06 20:22 49.57088 6.49470 37874 ft 463 kts 92°
2026-05-06 20:23 49.56903 6.59379 37879 ft 462 kts 94°
2026-05-06 20:23 49.56609 6.69279 37862 ft 462 kts 94°
2026-05-06 20:24 49.56294 6.79182 37870 ft 463 kts 95°
2026-05-06 20:24 49.55979 6.89107 37866 ft 464 kts 95°
2026-05-06 20:25 49.55662 6.99037 37864 ft 464 kts 95°
2026-05-06 20:25 49.55340 7.08953 37868 ft 464 kts 95°
2026-05-06 20:26 49.55008 7.18880 37847 ft 464 kts 95°
2026-05-06 20:26 49.54667 7.28816 37866 ft 465 kts 95°
2026-05-06 20:27 49.54319 7.38698 37859 ft 465 kts 95°
2026-05-06 20:27 49.53961 7.48645 37858 ft 465 kts 95°
2026-05-06 20:28 49.53594 7.58586 37841 ft 465 kts 95°
2026-05-06 20:28 49.53219 7.68529 37842 ft 465 kts 95°
2026-05-06 20:29 49.52835 7.78459 37845 ft 465 kts 96°
2026-05-06 20:29 49.52443 7.88398 37850 ft 465 kts 96°
2026-05-06 20:30 49.51839 8.03288 37855 ft 465 kts 96°
2026-05-06 20:31 49.51426 8.13220 37857 ft 465 kts 96°
2026-05-06 20:31 49.51075 8.21483 37859 ft 465 kts 96°
2026-05-06 20:32 49.50572 8.33099 37859 ft 465 kts 96°
2026-05-06 20:32 49.50207 8.41364 37859 ft 465 kts 96°
2026-05-06 20:33 49.49760 8.51292 37888 ft 465 kts 96°
2026-05-06 20:33 49.49305 8.61217 37883 ft 465 kts 96°
2026-05-06 20:34 49.48842 8.71147 37881 ft 465 kts 96°
2026-05-06 20:34 49.48370 8.81064 37872 ft 465 kts 97°
2026-05-06 20:35 49.47890 8.90984 37865 ft 465 kts 97°
2026-05-06 20:35 49.47402 9.00890 37850 ft 465 kts 97°
2026-05-06 20:36 49.46910 9.10726 37848 ft 464 kts 97°
2026-05-06 20:36 49.46041 9.20509 37840 ft 461 kts 103°
2026-05-06 20:37 49.44900 9.30209 37840 ft 461 kts 103°
2026-05-06 20:37 49.43700 9.39899 37839 ft 461 kts 104°
2026-05-06 20:38 49.42494 9.49576 37843 ft 462 kts 104°
2026-05-06 20:38 49.41284 9.59273 37845 ft 462 kts 104°
2026-05-06 20:39 49.40069 9.68970 37850 ft 462 kts 104°
2026-05-06 20:39 49.38623 9.78557 37855 ft 458 kts 113°
2026-05-06 20:40 49.35619 9.87011 37854 ft 448 kts 131°
2026-05-06 20:40 49.31636 9.94324 37858 ft 446 kts 135°
2026-05-06 20:41 49.27483 10.01374 37853 ft 445 kts 136°
2026-05-06 20:41 49.23324 10.08392 37853 ft 445 kts 136°
2026-05-06 20:42 49.19171 10.15452 37343 ft 447 kts 136°
2026-05-06 20:42 49.17097 10.18992 36694 ft 447 kts 136°
2026-05-06 20:42 49.15024 10.22534 36041 ft 447 kts 136°
2026-05-06 20:42 49.12932 10.26038 35452 ft 446 kts 137°
2026-05-06 20:43 49.10813 10.29492 34896 ft 445 kts 137°
2026-05-06 20:43 49.08684 10.32915 34347 ft 443 kts 137°
2026-05-06 20:43 49.06557 10.36314 33770 ft 442 kts 137°
2026-05-06 20:43 49.04433 10.39701 33035 ft 442 kts 138°
2026-05-06 20:44 49.02300 10.43103 32210 ft 445 kts 138°
2026-05-06 20:44 49.00161 10.46515 31447 ft 446 kts 138°
2026-05-06 20:44 48.98013 10.49939 30690 ft 448 kts 139°
2026-05-06 20:44 48.95858 10.53370 29932 ft 449 kts 139°
2026-05-06 20:45 48.93701 10.56802 29021 ft 450 kts 139°
2026-05-06 20:45 48.91532 10.60249 28004 ft 452 kts 137°
2026-05-06 20:45 48.89347 10.63719 27004 ft 455 kts 137°
2026-05-06 20:45 48.87152 10.67200 26082 ft 457 kts 137°
2026-05-06 20:46 48.84952 10.70687 25172 ft 458 kts 137°
2026-05-06 20:46 48.82742 10.74185 24250 ft 459 kts 137°
2026-05-06 20:46 48.80556 10.77640 23441 ft 458 kts 137°
2026-05-06 20:46 48.78357 10.81106 22507 ft 455 kts 137°
2026-05-06 20:47 48.76168 10.84544 21711 ft 450 kts 137°
2026-05-06 20:47 48.74002 10.87941 20865 ft 447 kts 137°
2026-05-06 20:47 48.71858 10.91297 20099 ft 441 kts 137°
2026-05-06 20:47 48.69726 10.94629 19308 ft 437 kts 137°
2026-05-06 20:48 48.67620 10.97913 18533 ft 433 kts 137°
2026-05-06 20:48 48.65530 11.01166 17727 ft 429 kts 137°
2026-05-06 20:48 48.63454 11.04391 16840 ft 426 kts 137°
2026-05-06 20:48 48.61392 11.07593 15962 ft 423 kts 137°
2026-05-06 20:49 48.59365 11.10734 15670 ft 407 kts 138°
2026-05-06 20:49 48.57260 11.13366 15676 ft 381 kts 147°
2026-05-06 20:49 48.55176 11.15651 15687 ft 360 kts 148°
2026-05-06 20:49 48.53171 11.17756 15695 ft 341 kts 149°
2026-05-06 20:50 48.51293 11.19796 15636 ft 327 kts 145°
2026-05-06 20:50 48.49593 11.21989 15481 ft 316 kts 142°
2026-05-06 20:50 48.47976 11.24174 15221 ft 309 kts 142°
2026-05-06 20:50 48.46387 11.26330 14842 ft 307 kts 142°
2026-05-06 20:51 48.44799 11.28479 14419 ft 306 kts 143°
2026-05-06 20:51 48.43233 11.30640 14055 ft 306 kts 139°
2026-05-06 20:51 48.42019 11.33254 13696 ft 315 kts 116°
2026-05-06 20:51 48.41640 11.36514 13326 ft 322 kts 92°
2026-05-06 20:52 48.41826 11.39887 12940 ft 324 kts 86°
2026-05-06 20:52 48.42116 11.43255 12588 ft 324 kts 85°
2026-05-06 20:52 48.42411 11.46613 12222 ft 323 kts 85°
2026-05-06 20:52 48.42696 11.49963 11852 ft 322 kts 85°
2026-05-06 20:53 48.42970 11.53296 11509 ft 320 kts 86°
2026-05-06 20:53 48.43238 11.56610 11157 ft 318 kts 86°
2026-05-06 20:53 48.43500 11.59912 10796 ft 317 kts 86°
2026-05-06 20:53 48.43759 11.63194 10466 ft 315 kts 86°
2026-05-06 20:54 48.44015 11.66459 10126 ft 313 kts 86°
2026-05-06 20:54 48.44268 11.69709 9790 ft 312 kts 86°
2026-05-06 20:54 48.44518 11.72953 9414 ft 311 kts 85°
2026-05-06 20:54 48.44763 11.76132 9051 ft 309 kts 85°
2026-05-06 20:55 48.45010 11.79345 8683 ft 308 kts 85°
2026-05-06 20:55 48.45255 11.82548 8324 ft 308 kts 84°
2026-05-06 20:55 48.45499 11.85758 7970 ft 308 kts 84°
2026-05-06 20:55 48.45742 11.88952 7618 ft 307 kts 83°
2026-05-06 20:56 48.45983 11.92148 7301 ft 307 kts 83°
2026-05-06 20:56 48.46224 11.95338 6985 ft 306 kts 83°
2026-05-06 20:56 48.46463 11.98510 6667 ft 304 kts 83°
2026-05-06 20:56 48.46699 12.01663 6357 ft 302 kts 83°
2026-05-06 20:57 48.46933 12.04805 6038 ft 301 kts 83°
2026-05-06 20:57 48.47166 12.07934 5699 ft 299 kts 82°
2026-05-06 20:57 48.47396 12.11042 5379 ft 298 kts 82°
2026-05-06 20:57 48.47624 12.14128 5148 ft 293 kts 82°
2026-05-06 20:58 48.47845 12.17141 5027 ft 294 kts 82°
2026-05-06 20:58 48.48024 12.20210 4909 ft 295 kts 90°
2026-05-06 20:58 48.47552 12.23179 4893 ft 292 kts 118°
2026-05-06 20:58 48.46284 12.25504 4950 ft 286 kts 147°
2026-05-06 20:59 48.44515 12.26716 5001 ft 277 kts 175°
2026-05-06 20:59 48.42689 12.26606 5014 ft 251 kts 203°
2026-05-06 20:59 48.41238 12.25497 5009 ft 219 kts 231°
2026-05-06 20:59 48.40415 12.23717 5021 ft 202 kts 249°
2026-05-06 21:00 48.39920 12.21746 5016 ft 201 kts 258°
2026-05-06 21:00 48.39621 12.19694 5012 ft 203 kts 263°
2026-05-06 21:00 48.39421 12.17508 5015 ft 216 kts 265°
2026-05-06 21:00 48.39248 12.15237 5011 ft 220 kts 265°
2026-05-06 21:01 48.39077 12.12950 5017 ft 220 kts 265°
2026-05-06 21:01 48.38900 12.10656 5016 ft 221 kts 265°
2026-05-06 21:01 48.38717 12.08368 4978 ft 218 kts 265°
2026-05-06 21:01 48.38535 12.06142 4756 ft 212 kts 265°
2026-05-06 21:02 48.38365 12.03945 4431 ft 210 kts 266°
2026-05-06 21:02 48.38204 12.01793 4121 ft 209 kts 265°
2026-05-06 21:02 48.38038 11.99635 3863 ft 204 kts 265°
2026-05-06 21:02 48.37878 11.97592 3582 ft 188 kts 265°
2026-05-06 21:03 48.37734 11.95731 3332 ft 170 kts 265°
2026-05-06 21:03 48.37604 11.94049 3105 ft 155 kts 265°
2026-05-06 21:03 48.37486 11.92512 2909 ft 142 kts 265°
2026-05-06 21:03 48.37378 11.91099 2717 ft 130 kts 264°
2026-05-06 21:04 48.37278 11.89791 2564 ft 122 kts 263°
2026-05-06 21:04 48.37181 11.88518 2369 ft 123 kts 262°
2026-05-06 21:04 48.37095 11.87380 2210 ft 125 kts 262°
2026-05-06 21:04 48.37015 11.86347 2065 ft 125 kts 261°
2026-05-06 21:05 48.36915 11.85054 1881 ft 124 kts 262°
2026-05-06 21:05 48.36813 11.83764 1719 ft 124 kts 261°
2026-05-06 21:05 48.36716 11.82503 1576 ft 122 kts 262°
2026-05-06 21:05 48.36621 11.81253 1490 ft 114 kts 263°
2026-05-06 21:06 48.36548 11.80293 1488 ft 65 kts 264°
2026-05-06 21:06 48.36518 11.79906 1484 ft 12 kts 247°
2026-05-06 21:06 48.36462 11.79731 1480 ft 21 kts 244°
2026-05-06 21:06 48.36374 11.79550 1488 ft 22 kts 236°
2026-05-06 21:07 48.36284 11.79364 1475 ft 22 kts 233°
2026-05-06 21:07 48.36176 11.79302 1478 ft 17 kts 174°
2026-05-06 21:07 48.36059 11.79322 1484 ft 17 kts 173°
2026-05-06 21:07 48.35954 11.79340 1482 ft 11 kts 173°
2026-05-06 21:08 48.35880 11.79377 1487 ft 11 kts 167°
2026-05-06 21:08 48.35805 11.79393 1479 ft 11 kts 173°
2026-05-06 21:08 48.35728 11.79406 1488 ft 11 kts 173°
2026-05-06 21:08 48.35650 11.79420 1477 ft 11 kts 173°
2026-05-06 21:09 48.35572 11.79433 1485 ft 11 kts 173°
2026-05-06 21:09 48.35494 11.79447 1481 ft 11 kts 173°
2026-05-06 21:09 48.35423 11.79457 1481 ft 4 kts 191°
2026-05-06 21:09 48.35413 11.79432 1483 ft 4 kts 251°
2026-05-06 21:10 48.35411 11.79375 1480 ft 6 kts 269°
2026-05-06 21:10 48.35411 11.79315 1480 ft 2 kts 271°
2026-05-06 21:10 48.35411 11.79304 1479 ft 0 kts 271°